Content
SEND FEEDBACK

Daily
Averages
Monthly
Summary
United States of America

LE ROY, KANSAS


Home > North America > United States > Kansas
Elevation: 990 feet     Latitude: 38 05N     Longitude: 095 38W

WEATHER
 
SELECT A DAY
Number of Records: 201,767;   Date Range: 1/1/95 - 12/24/14
 
SHARE

PRINT THIS DATA

[ ← Previous Day ]
WEATHER ALMANAC - FEBRUARY 13, 2013
[ Next Day → ]
[ °C ]   °F
Weather ElementAverageHighLow
Temperature38.7 °F51.1 °F (2:52 pm)28 °F (6:52 am)
Dewpoint30.6 °F35.1 °F (12:52 pm)27 °F (6:52 am)
Humidity74.4 %96 % (3:52 am)46 % (3:52 pm)
Barometer29.95 in30.00 in (10:52 am)29.89 in (4:52 pm)
Wind Speed9.5 mph17.3 mph (2:52 pm)
Wind Gust21.9 mph (3:52 pm)
Weather ElementAverage
Visibility9.4 mi
Wind DirectionSW (228.7 °)

Weather ElementTotal
Precipitation---
Heating Degree Days25.5 (Base 65)
Averaged from 23 records on February 13, 2013
WEATHER CONDITIONS BREAKOUT
WIND DIRECTION BREAKOUT
WEATHER BY HOUR - FEBRUARY 13, 2013
[ °C ]   °F
Local TimeTemperatureDewpointHumidityBarometerVisibilityWind DirectionWind SpeedGust SpeedPrecipitationEventsConditions
1:52 AM32.0 °F30.2 °F93 %29.99 in7.0 miWSW (250°)4.6 mphPartly Cloudy
2:52 AM30.9 °F28.0 °F89 %29.99 in9.0 miSW (230°)5.8 mphClear
3:52 AM30.0 °F28.9 °F96 %29.96 in8.0 miSSW (210°)6.9 mphClear
4:52 AM30.0 °F28.9 °F96 %29.96 in9.0 miSSW (210°)10.4 mphClear
5:52 AM28.9 °F28.0 °F96 %29.98 in8.0 miWSW (240°)6.9 mphClear
6:52 AM28.0 °F27.0 °F96 %29.99 in8.0 miWSW (250°)5.8 mphClear
7:52 AM28.9 °F27.0 °F92 %29.98 in8.0 miWSW (250°)5.8 mphClear
8:52 AM32.0 °F28.9 °F88 %29.99 in10.0 miWest (260°)9.2 mphClear
9:52 AM36.0 °F30.9 °F82 %29.99 in10.0 miWSW (240°)8.1 mphClear
10:52 AM39.0 °F32.0 °F76 %30.00 in10.0 miWSW (240°)6.9 mphClear
11:52 AM44.1 °F33.1 °F65 %29.98 in10.0 miSW (230°)8.1 mphClear
12:52 PM46.9 °F35.1 °F63 %29.96 in10.0 miSW (230°)11.5 mph17.3 mphClear
1:52 PM48.9 °F35.1 °F59 %29.93 in10.0 miSSW (210°)11.5 mphClear
2:52 PM51.1 °F34.0 °F52 %29.90 in10.0 miSSW (200°)17.3 mphClear
3:52 PM51.1 °F30.9 °F46 %29.90 in10.0 miSW (220°)13.8 mph21.9 mphClear
4:52 PM48.9 °F32.0 °F52 %29.89 in10.0 miSSW (210°)15.0 mphClear
5:52 PM45.0 °F32.0 °F60 %29.89 in10.0 miSSW (210°)13.8 mphClear
6:52 PM42.1 °F32.0 °F67 %29.91 in10.0 miSW (220°)10.4 mphClear
7:52 PM41.0 °F30.9 °F67 %29.91 in10.0 miSW (220°)10.4 mphClear
8:52 PM41.0 °F30.9 °F67 %29.91 in10.0 miSW (230°)11.5 mphClear
9:52 PM39.0 °F30.0 °F70 %29.91 in10.0 miSW (230°)9.2 mphClear
10:52 PM37.9 °F28.9 °F70 %29.93 in10.0 miWSW (240°)8.1 mphClear
11:52 PM37.9 °F28.9 °F70 %29.92 in10.0 miSW (230°)8.1 mphClear
Hourly data recorded from KCNU, located miles away from Le Roy, Kansas







STORIES FROM OUR PARTNERS